DW7589 Weather Reports


time (UTC)temp
C
wind
direction
speed
KPH
gust
KPH
rain 1hr
cm
rain 24hr
cm
rain mn
cm
humidity
%
barometer
mb
20260902223742 39 17 6.4 19.3 0.00 0.00 0.00 32 1010.1
20260902223241 39 17 8.0 17.7 0.00 0.00 0.00 31 1010.2
20260902222243 40 7 3.2 14.5 0.00 0.00 0.00 31 1010.1
20260902221741 40 21 3.2 8.0 0.00 0.00 0.00 31 1010.2
20260902221241 40 28 6.4 17.7 0.00 0.00 0.00 31 1010.2
20260902220741 40 22 6.4 17.7 0.00 0.00 0.00 31 1010.3
20260902220242 39 20 4.8 17.7 0.00 0.00 0.00 31 1010.4
20260902215241 38 13 6.4 14.5 0.00 0.00 0.00 33 1010.4
20260902214742 39 15 6.4 16.1 0.00 0.00 0.00 32 1010.4
20260902214241 40 23 6.4 17.7 0.00 0.00 0.00 32 1010.4
20260902213741 39 29 4.8 17.7 0.00 0.00 0.00 31 1010.5
20260902213241 38 53 3.2 14.5 0.00 0.00 0.00 32 1010.5
20260902212241 38 18 4.8 19.3 0.00 0.00 0.00 33 1010.6
20260902211743 38 20 6.4 19.3 0.00 0.00 0.00 34 1010.8
20260902211241 38 33 6.4 16.1 0.00 0.00 0.00 33 1010.7
20260902210742 39 20 4.8 16.1 0.00 0.00 0.00 32 1010.7
20260902210241 40 335 3.2 11.3 0.00 0.00 0.00 32 1010.8
20260902205241 39 359 4.8 14.5 0.00 0.00 0.00 31 1011.0
20260902204742 39 16 6.4 19.3 0.00 0.00 0.00 31 1011.1
20260902204242 40 20 4.8 19.3 0.00 0.00 0.00 32 1011.1
20260902203742 40 355 3.2 8.0 0.00 0.00 0.00 33 1011.1
20260902202241 39 3 3.2 12.9 0.00 0.00 0.00 34 1011.4
20260902201742 38 13 6.4 16.1 0.00 0.00 0.00 33 1011.5
20260902200742 39 9 3.2 16.1 0.00 0.00 0.00 33 1011.6
20260902200242 38 347 3.2 8.0 0.00 0.00 0.00 35 1011.6
20260902195742 38 10 4.8 11.3 0.00 0.00 0.00 36 1011.7
20260902194742 37 4 3.2 12.9 0.00 0.00 0.00 38 1011.9
20260902194241 37 2 4.8 12.9 0.00 0.00 0.00 37 1012.0
20260902193742 38 1 4.8 12.9 0.00 0.00 0.00 36 1012.1
20260902193243 38 13 3.2 9.7 0.00 0.00 0.00 34 1012.2
20260902192742 38 50 3.2 11.3 0.00 0.00 0.00 36 1012.2
20260902191742 38 30 4.8 19.3 0.00 0.00 0.00 37 1012.3
20260902191241 38 22 6.4 19.3 0.00 0.00 0.00 36 1012.5
20260902190742 38 34 4.8 16.1 0.00 0.00 0.00 36 1012.5
20260902185741 38 28 6.4 16.1 0.00 0.00 0.00 37 1012.7
20260902185242 37 18 8.0 17.7 0.00 0.00 0.00 36 1012.8
20260902184742 37 22 6.4 17.7 0.00 0.00 0.00 36 1012.9
20260902184242 38 50 3.2 16.1 0.00 0.00 0.00 38 1013.0
20260902183741 37 41 3.2 12.9 0.00 0.00 0.00 38 1013.1
20260902183242 37 39 3.2 12.9 0.00 0.00 0.00 39 1013.2
20260902181742 37 26 4.8 19.3 0.00 0.00 0.00 39 1013.3
20260902181241 37 18 6.4 20.9 0.00 0.00 0.00 40 1013.5
20260902180742 37 17 4.8 20.9 0.00 0.00 0.00 39 1013.6
20260902180242 37 2 4.8 16.1 0.00 0.00 0.00 40 1013.7
20260902175742 37 8 4.8 16.1 0.00 0.00 0.00 39 1013.8
20260902175241 37 13 4.8 11.3 0.00 0.00 0.00 40 1013.9
20260902174742 37 22 4.8 16.1 0.00 0.00 0.00 42 1014.0
20260902174242 37 24 4.8 16.1 0.00 0.00 0.00 42 1014.2
20260902173742 36 13 4.8 16.1 0.00 0.00 0.00 42 1014.2
20260902173242 36 9 4.8 14.5 0.00 0.00 0.00 42 1014.4
20260902172742 36 305 4.8 11.3 0.00 0.00 0.00 44 1014.5
20260902172241 35 250 4.8 12.9 0.00 0.00 0.00 45 1014.6
20260902171742 36 254 4.8 12.9 0.00 0.00 0.00 44 1014.7
20260902171241 35 325 4.8 12.9 0.00 0.00 0.00 46 1014.9
20260902170241 35 161 3.2 6.4 0.00 0.00 0.00 47 1014.9
20260902165742 35 345 3.2 14.5 0.00 0.00 0.00 47 1015.0
20260902165241 35 14 4.8 14.5 0.00 0.00 0.00 48 1015.1
20260902164742 35 33 4.8 12.9 0.00 0.00 0.00 47 1015.1
20260902163241 34 135 3.2 8.0 0.00 0.00 0.00 49 1015.3
20260902162743 33 212 3.2 8.0 0.00 0.00 0.00 51 1015.4
20260902162242 33 263 3.2 6.4 0.00 0.00 0.00 50 1015.4
20260902161742 34 275 3.2 6.4 0.00 0.00 0.00 50 1015.4
20260902161243 34 25 3.2 8.0 0.00 0.00 0.00 51 1015.5
20260902160742 33 25 3.2 8.0 0.00 0.00 0.00 50 1015.4
20260902160242 33 14 3.2 8.0 0.00 0.00 0.00 51 1015.5
20260902155741 33 272 3.2 6.4 0.00 0.00 0.00 52 1015.5
20260902155242 33 240 3.2 6.4 0.00 0.00 0.00 54 1015.5
20260902154742 33 255 1.6 6.4 0.00 0.00 0.00 53 1015.4
20260902154242 33 347 1.6 6.4 0.00 0.00 0.00 53 1015.4
20260902153742 32 76 1.6 6.4 0.00 0.00 0.00 54 1015.5
20260902153241 32 166 1.6 4.8 0.00 0.00 0.00 55 1015.5
20260902152742 32 167 1.6 4.8 0.00 0.00 0.00 55 1015.5
20260902152242 32 172 1.6 4.8 0.00 0.00 0.00 56 1015.5
20260902151242 31 135 1.6 6.4 0.00 0.00 0.00 56 1015.5
20260902150741 31 133 1.6 6.4 0.00 0.00 0.00 57 1015.5
20260902150242 31 140 1.6 6.4 0.00 0.00 0.00 58 1015.6
20260902145242 31 124 1.6 4.8 0.00 0.00 0.00 60 1015.6
20260902144741 31 115 1.6 4.8 0.00 0.00 0.00 61 1015.6
20260902142743 30 129 1.6 6.4 0.00 0.00 0.00 63 1015.7
20260902141741 30 101 1.6 4.8 0.00 0.00 0.00 65 1015.7
20260902141242 29 110 1.6 4.8 0.00 0.00 0.00 66 1015.7
20260902140743 28 82 1.6 4.8 0.00 0.00 0.00 67 1015.6
20260902140242 28 81 1.6 4.8 0.00 0.00 0.00 69 1015.5
20260902135742 27 73 1.6 4.8 0.00 0.00 0.00 71 1015.5
20260902135244 27 37 1.6 4.8 0.00 0.00 0.00 73 1015.5
20260902134242 26 0 0.0 3.2 0.00 0.00 0.00 76 1015.4
20260902133742 26 45 1.6 3.2 0.00 0.00 0.00 77 1015.4
20260902133243 25 52 1.6 3.2 0.00 0.00 0.00 78 1015.4
20260902132743 25 78 1.6 4.8 0.00 0.00 0.00 79 1015.4
20260902132242 25 0 0.0 4.8 0.00 0.00 0.00 80 1015.4
20260902131242 25 21 1.6 4.8 0.00 0.00 0.00 80 1015.3
20260902130742 25 30 1.6 4.8 0.00 0.00 0.00 81 1015.3
20260902130242 24 39 1.6 3.2 0.00 0.00 0.00 82 1015.3
20260902125742 24 0 0.0 3.2 0.00 0.00 0.00 82 1015.2
20260902125242 24 0 0.0 1.6 0.00 0.00 0.00 82 1015.2
20260902124742 24 0 0.0 3.2 0.00 0.00 0.00 82 1015.1
20260902124242 24 36 1.6 3.2 0.00 0.00 0.00 82 1015.0
20260902123742 24 28 1.6 3.2 0.00 0.00 0.00 82 1014.9
20260902122744 24 32 1.6 3.2 0.00 0.00 0.00 82 1014.8
20260902121742 24 30 1.6 3.2 0.00 0.00 0.00 82 1014.7
20260902121242 24 21 1.6 3.2 0.00 0.00 0.00 82 1014.8
20260902120742 24 14 1.6 3.2 0.00 0.00 0.00 82 1014.7
20260902120242 24 0 0.0 3.2 0.00 0.00 0.00 82 1014.8
20260902115742 24 0 0.0 3.2 0.00 0.00 0.00 82 1014.8
20260902115242 24 0 0.0 3.2 0.00 0.00 0.00 82 1014.7
20260902114743 24 0 0.0 1.6 0.00 0.00 0.00 82 1014.7
20260902114244 24 0 0.0 3.2 0.00 0.00 0.00 81 1014.6
20260902113742 24 9 1.6 3.2 0.00 0.00 0.00 81 1014.6
20260902113243 24 11 1.6 3.2 0.00 0.00 0.00 81 1014.6
20260902112742 24 0 0.0 3.2 0.00 0.00 0.00 81 1014.6
20260902112242 24 0 0.0 1.6 0.00 0.00 0.00 80 1014.6
20260902110742 24 35 1.6 3.2 0.00 0.00 0.00 80 1014.7
20260902105742 24 0 0.0 3.2 0.00 0.00 0.00 80 1014.7
20260902105242 25 0 0.0 1.6 0.00 0.00 0.00 80 1014.8
20260902104743 25 0 0.0 1.6 0.00 0.00 0.00 79 1014.8
20260902104242 25 0 0.0 1.6 0.00 0.00 0.00 79 1014.7
20260902103742 25 0 0.0 0.0 0.00 0.00 0.00 79 1014.7
20260902103242 25 0 0.0 1.6 0.00 0.00 0.00 79 1014.7
20260902102742 25 0 0.0 1.6 0.00 0.00 0.00 79 1014.7
20260902102242 25 0 0.0 3.2 0.00 0.00 0.00 79 1014.7
20260902101742 25 0 0.0 3.2 0.00 0.00 0.00 79 1014.6
20260902101242 25 0 0.0 3.2 0.00 0.00 0.00 78 1014.6
20260902100743 25 0 0.0 0.0 0.00 0.00 0.00 78 1014.5
20260902100242 25 0 0.0 0.0 0.00 0.00 0.00 77 1014.4
20260902095742 25 0 0.0 0.0 0.00 0.00 0.00 77 1014.5
20260902095243 25 0 0.0 0.0 0.00 0.00 0.00 76 1014.5
20260902094242 25 0 0.0 0.0 0.00 0.00 0.00 76 1014.5
20260902093742 26 0 0.0 0.0 0.00 0.00 0.00 75 1014.5
20260902093244 26 0 0.0 0.0 0.00 0.00 0.00 74 1014.5
20260902092243 26 0 0.0 1.6 0.00 0.00 0.00 73 1014.5
20260902091742 26 0 0.0 1.6 0.00 0.00 0.00 73 1014.6
20260902091242 26 0 0.0 1.6 0.00 0.00 0.00 72 1014.6
20260902090742 26 0 0.0 1.6 0.00 0.00 0.00 72 1014.6
20260902090243 26 0 0.0 1.6 0.00 0.00 0.00 72 1014.6
20260902085742 26 0 0.0 3.2 0.00 0.00 0.00 72 1014.5
20260902085243 26 0 0.0 3.2 0.00 0.00 0.00 71 1014.6
20260902084742 26 0 0.0 1.6 0.00 0.00 0.00 71 1014.5
20260902083742 27 0 0.0 1.6 0.00 0.00 0.00 71 1014.6
20260902083243 27 0 0.0 1.6 0.00 0.00 0.00 71 1014.6
20260902082743 27 0 0.0 1.6 0.00 0.00 0.00 71 1014.6
20260902082242 27 0 0.0 1.6 0.00 0.00 0.00 70 1014.6
20260902081742 27 0 0.0 3.2 0.00 0.00 0.00 70 1014.7
20260902081243 27 0 0.0 3.2 0.00 0.00 0.00 70 1014.7
20260902080742 27 0 0.0 1.6 0.00 0.00 0.00 70 1014.7
20260902075243 27 0 0.0 0.0 0.00 0.00 0.00 70 1014.8
20260902074742 27 0 0.0 1.6 0.00 0.00 0.00 69 1014.8
20260902074243 27 0 0.0 1.6 0.00 0.00 0.00 69 1014.9
20260902073742 27 0 0.0 1.6 0.00 0.00 0.00 69 1014.9
20260902072742 27 0 0.0 1.6 0.00 0.00 0.00 69 1015.0
20260902072242 27 0 0.0 1.6 0.00 0.00 0.00 69 1015.0
20260902071742 27 0 0.0 1.6 0.00 0.00 0.00 68 1015.0
20260902071243 27 0 0.0 1.6 0.00 0.00 0.00 68 1015.0
20260902070743 27 0 0.0 3.2 0.00 0.00 0.00 68 1015.0
20260902070244 27 164 1.6 3.2 0.00 0.00 0.00 68 1015.0
20260902065743 27 164 1.6 3.2 0.00 0.00 0.00 68 1015.1
20260902064743 27 0 0.0 3.2 0.00 0.00 0.00 67 1015.0
20260902064242 27 0 0.0 3.2 0.00 0.00 0.00 67 1015.1
20260902063742 27 0 0.0 1.6 0.00 0.00 0.00 67 1015.1
20260902063242 27 0 0.0 1.6 0.00 0.00 0.00 67 1015.1
20260902062744 27 0 0.0 1.6 0.00 0.00 0.00 67 1015.1
20260902062243 27 0 0.0 1.6 0.00 0.00 0.00 67 1015.1
20260902061742 27 0 0.0 1.6 0.00 0.00 0.00 67 1015.1
20260902061243 28 0 0.0 1.6 0.00 0.00 0.00 66 1015.1
20260902060743 28 0 0.0 1.6 0.00 0.00 0.00 66 1015.1
20260902060243 28 164 1.6 3.2 0.00 0.00 0.00 65 1015.1
20260902054742 28 157 1.6 3.2 0.00 0.00 0.00 64 1014.9
20260902053742 28 170 1.6 6.4 0.00 0.00 0.00 64 1014.8
20260902053242 28 167 1.6 4.8 0.00 0.00 0.00 64 1014.8
20260902052242 28 156 1.6 4.8 0.00 0.00 0.00 64 1014.7
20260902051743 28 162 1.6 3.2 0.00 0.00 0.00 64 1014.7
20260902050742 28 153 1.6 6.4 0.00 0.00 0.00 65 1014.9
20260902050243 28 154 1.6 6.4 0.00 0.00 0.00 65 1014.8
20260902045743 28 153 3.2 8.0 0.00 0.00 0.00 64 1014.8
20260902045242 29 153 4.8 8.0 0.00 0.00 0.00 64 1014.7
20260902044742 29 154 3.2 8.0 0.00 0.00 0.00 64 1014.7
20260902042743 29 145 3.2 6.4 0.00 0.00 0.00 63 1014.7
20260902041743 30 150 3.2 8.0 0.00 0.00 0.00 62 1014.7
20260902040742 30 150 4.8 11.3 0.00 0.00 0.00 61 1014.5
20260902040243 30 152 4.8 11.3 0.00 0.00 0.00 60 1014.5
20260902035743 30 153 4.8 9.7 0.00 0.00 0.00 60 1014.5
20260902035243 30 150 4.8 11.3 0.00 0.00 0.00 60 1014.6
20260902034743 30 151 6.4 11.3 0.00 0.00 0.00 59 1014.5
20260902034243 30 153 6.4 12.9 0.00 0.00 0.00 58 1014.4
20260902033743 31 150 6.4 12.9 0.00 0.00 0.00 57 1014.3
20260902032742 31 139 4.8 8.0 0.00 0.00 0.00 56 1014.2
20260902032242 31 144 4.8 8.0 0.00 0.00 0.00 55 1014.2
20260902031742 31 149 4.8 9.7 0.00 0.00 0.00 55 1014.1
20260902031242 31 144 4.8 9.7 0.00 0.00 0.00 54 1013.9
20260902030243 31 131 3.2 4.8 0.00 0.00 0.00 53 1013.7
20260902025742 31 113 1.6 4.8 0.00 0.00 0.00 53 1013.6
20260902025242 31 102 1.6 3.2 0.00 0.00 0.00 53 1013.4
20260902024743 30 100 1.6 1.6 0.00 0.00 0.00 54 1013.5
20260902024243 30 0 0.0 1.6 0.00 0.00 0.00 54 1013.4
20260902023742 30 0 0.0 1.6 0.00 0.00 0.00 54 1013.3
20260902022743 31 0 0.0 0.0 0.00 0.00 0.00 53 1013.1
20260902022244 31 0 0.0 0.0 0.00 0.00 0.00 53 1013.0
20260902021742 31 0 0.0 0.0 0.00 0.00 0.00 52 1012.9
20260902021243 31 0 0.0 0.0 0.00 0.00 0.00 52 1012.9
20260902020243 31 0 0.0 0.0 0.00 0.00 0.00 51 1012.7
20260902015742 32 0 0.0 1.6 0.00 0.00 0.00 51 1012.7
20260902015243 32 0 0.0 1.6 0.00 0.00 0.00 50 1012.6
20260902014743 32 0 0.0 1.6 0.00 0.00 0.00 49 1012.6
20260902014243 32 0 0.0 1.6 0.00 0.00 0.00 49 1012.5
20260902013744 32 0 0.0 3.2 0.00 0.00 0.00 49 1012.4
20260902013243 32 0 0.0 3.2 0.00 0.00 0.00 48 1012.4
20260902012743 33 0 0.0 0.0 0.00 0.00 0.00 48 1012.3
20260902012243 33 0 0.0 0.0 0.00 0.00 0.00 47 1012.4
20260902011743 33 0 0.0 1.6 0.00 0.00 0.00 47 1012.3
20260902011242 33 0 0.0 3.2 0.00 0.00 0.00 46 1012.3
20260902010743 33 0 0.0 3.2 0.00 0.00 0.00 46 1012.3
20260902010242 33 0 0.0 3.2 0.00 0.00 0.00 45 1012.2
20260902005743 34 130 1.6 3.2 0.00 0.00 0.00 44 1012.2
20260902005243 34 137 1.6 3.2 0.00 0.00 0.00 44 1012.2
20260902004744 34 139 1.6 3.2 0.00 0.00 0.00 43 1012.2
20260902003743 35 132 1.6 3.2 0.00 0.00 0.00 43 1012.1
20260902003243 35 129 1.6 4.8 0.00 0.00 0.00 42 1012.1
20260902002743 35 128 1.6 4.8 0.00 0.00 0.00 42 1012.2
20260902002242 35 120 1.6 6.4 0.00 0.00 0.00 42 1012.1
20260902001743 35 123 1.6 6.4 0.00 0.00 0.00 42 1012.2
20260902001243 35 131 1.6 6.4 0.00 0.00 0.00 42 1012.2
20260902000744 35 136 3.2 9.7 0.00 0.00 0.00 41 1012.3
20260901235743 36 138 3.2 9.7 0.00 0.00 0.00 40 1012.3
20260901235243 36 142 3.2 9.7 0.00 0.00 0.00 40 1012.3
20260901234743 36 140 4.8 8.0 0.00 0.00 0.00 40 1012.4
20260901234243 36 140 4.8 11.3 0.00 0.00 0.00 40 1012.4
20260901233743 36 141 4.8 11.3 0.00 0.00 0.00 40 1012.4
20260901233243 36 139 3.2 9.7 0.00 0.00 0.00 39 1012.4
20260901232743 36 129 3.2 8.0 0.00 0.00 0.00 39 1012.5
20260901231243 36 132 4.8 9.7 0.00 0.00 0.00 38 1012.5
20260901230743 36 133 4.8 8.0 0.00 0.00 0.00 38 1012.5
20260901230243 36 136 3.2 6.4 0.00 0.00 0.00 39 1012.5
20260901225743 36 141 3.2 8.0 0.00 0.00 0.00 38 1012.4